Location: Unspecified
(43.3830°N, 0.0000°E)
Time: 18:01:42
(UTC+00:00)

Explorer 7 - Pass Details

Date: 25 June 2019
Orbit: 485 x 680 km, 50.3° (Epoch: 16 August)

Event Time Altitude Azimuth Distance (km) Brightness Sun altitude
Rises 13:56:30 0° 296° (WNW) 2,950 10.8 59.2°
Reaches altitude 10° 13:58:54 10° 289° (WNW) 2,062 10.2 58.8°
Maximum altitude 14:03:23 41° 220° (SW) 965 9.7 58.1°
Drops below altitude 10° 14:07:58 10° 151° (SSE) 2,107 9.9 57.4°
Sets 14:10:26 0° 144° (SE) 3,021 10.5 57.0°
